Carlsbad, NM

12:52 PM MDT on September 21, 2017 (GMT -0600)
Cavern City

Weather History for KCNM - May, 2013

Change the Weather History Date:

Friday, May 10, 2013

  Actual Average Record
Temperature  
Mean Temperature 62 °F -  
Max Temperature 69 °F 87 °F 101 °F (2000)
Min Temperature 57 °F 54 °F 40 °F (1981)
Degree Days  
Heating Degree Days 2    
Growing Degree Days 12 (Base 50)    
Moisture  
Dew Point 45 °F    
Average Humidity 53    
Maximum Humidity 77    
Minimum Humidity 26    
Precipitation  
Precipitation 0.00 in - - ()
Sea Level Pressure  
Sea Level Pressure 30.04 in    
Wind  
Wind Speed 13 mph (NNW)    
Max Wind Speed 22 mph    
Max Gust Speed 28 mph    
Visibility 10 miles    
Events Rain , Thunderstorm    
Averages and records for this station are not official NWS values.
T = Trace of Precipitation, MM = Missing Value Source: NWS Daily Summary

Daily Weather History Graph

Daily Weather History Graph

Search for Another Location

Airport or City:

Trip Planner

Search our weather history database for the weather conditions in past years. The results will help you decide how hot, cold, wet, or windy it might be!

Date:

Astronomy

May. 10, 2013 Rise Set
Actual Time 6:02 AM MDT 7:44 PM MDT
Civil Twilight 5:35 AM MDT 8:11 PM MDT
Nautical Twilight 5:03 AM MDT 8:43 PM MDT
Astronomical Twilight 4:29 AM MDT 9:17 PM MDT
Moon 6:28 AM MDT (5/10) 8:35 PM MDT (5/10)
Length of Visible Light 14h 35m
Length of Day
13h 42m
New Moon, 1% of the Moon is Illuminated
May 10
New Moon
May 17
First Quarter
May 24
Full
May 31
Last Quarter
Jun 8
New

Hourly Weather History & Observations

Time (MDT) Temp. Dew Point Humidity Pressure Visibility Wind Dir Wind Speed Gust Speed Precip Events Conditions
12:02 AM 66.2 °F 30.2 °F 26% 29.99 in 9.0 mi NNE 10.4 mph - N/A   Clear
12:53 AM 64.9 °F 44.1 °F 47% 29.84 in 10.0 mi NE 8.1 mph - N/A   Clear
1:53 AM 64.4 °F 46.4 °F 52% 30.03 in 10.0 mi North 12.7 mph - N/A   Clear
2:00 AM 64.4 °F 46.4 °F 52% 30.04 in 10.0 mi NNW 18.4 mph 24.2 mph N/A   Partly Cloudy
2:53 AM 62.1 °F 43.0 °F 50% 29.91 in 10.0 mi NNW 21.9 mph - N/A   Overcast
3:53 AM 61.0 °F 42.1 °F 50% 29.91 in 10.0 mi NNW 20.7 mph - N/A   Overcast
4:53 AM 60.1 °F 41.0 °F 49% 29.92 in 10.0 mi NNW 17.3 mph 25.3 mph N/A   Mostly Cloudy
5:53 AM 60.8 °F 41.0 °F 48% 30.10 in 10.0 mi NNW 19.6 mph - N/A   Overcast
6:53 AM 57.9 °F 41.0 °F 53% 29.97 in 10.0 mi NNW 16.1 mph - N/A   Mostly Cloudy
7:53 AM 57.9 °F 44.1 °F 60% 30.02 in 10.0 mi NNW 19.6 mph - N/A   Overcast
8:53 AM 59.0 °F 44.1 °F 58% 30.04 in 10.0 mi NNW 13.8 mph - N/A   Overcast
9:53 AM 64.0 °F 43.0 °F 46% 30.04 in 10.0 mi NW 15.0 mph - N/A   Partly Cloudy
10:53 AM 64.0 °F 43.0 °F 46% 30.05 in 10.0 mi Variable 4.6 mph - N/A   Mostly Cloudy
11:53 AM 68.0 °F 44.1 °F 42% 30.02 in 10.0 mi NNW 13.8 mph 21.9 mph N/A   Partly Cloudy
12:53 PM 68.0 °F 44.1 °F 42% 30.04 in 10.0 mi NW 18.4 mph 27.6 mph N/A   Mostly Cloudy
1:02 PM 66.2 °F 44.6 °F 46% 30.16 in 10.0 mi NNW 17.3 mph 25.3 mph N/A Thunderstorm Overcast
1:13 PM 64.4 °F 46.4 °F 52% 30.16 in 10.0 mi North 18.4 mph - N/A Thunderstorm Overcast
1:34 PM 62.6 °F 46.4 °F 55% 30.15 in 10.0 mi North 15.0 mph - N/A   Overcast
1:53 PM 61.0 °F 48.0 °F 62% 30.04 in 10.0 mi North 10.4 mph - N/A   Overcast
2:28 PM 59.0 °F 51.8 °F 77% 30.14 in 10.0 mi North 10.4 mph - 0.00 in Thunderstorm Thunderstorm
2:53 PM 60.1 °F 51.1 °F 72% 30.03 in 10.0 mi North 11.5 mph - 0.00 in Rain , Thunderstorm Light Rain
3:04 PM 62.6 °F 51.8 °F 68% 30.13 in 10.0 mi North 13.8 mph - 0.00 in   Partly Cloudy
3:53 PM 66.0 °F 48.9 °F 54% 29.99 in 10.0 mi North 16.1 mph - 0.00 in   Clear
4:53 PM 68.0 °F 48.9 °F 50% 29.99 in 10.0 mi North 11.5 mph - N/A   Clear
5:53 PM 68.0 °F 46.9 °F 47% 29.99 in 10.0 mi North 10.4 mph - N/A   Clear
6:53 PM 66.9 °F 46.9 °F 49% 30.02 in 10.0 mi North 10.4 mph - N/A   Clear
7:53 PM 64.9 °F 46.9 °F 52% 30.04 in 10.0 mi North 8.1 mph - N/A   Clear
8:53 PM 63.0 °F 46.9 °F 56% 30.09 in 10.0 mi North 6.9 mph - N/A   Clear
9:53 PM 60.1 °F 46.0 °F 60% 30.10 in 10.0 mi NNW 6.9 mph - N/A   Partly Cloudy
10:53 PM 57.9 °F 44.1 °F 60% 30.12 in 10.0 mi NW 4.6 mph - N/A   Clear
11:53 PM 57.9 °F 43.0 °F 58% 30.11 in 10.0 mi WNW 3.5 mph - N/A   Scattered Clouds